Location: Nag� el Ma?a??a
(24.0667°N, 32.8833°E)
Time: 17:06:15
(UTC+00:00)

ATLAS CENTAUR R/B - Pass Details

Date: 25 September 2021
Orbit: 209 x 5484 km, 57.3° (Epoch: 16 October)

Event Time Altitude Azimuth Distance (km) Brightness Sun altitude
Exits shadow 02:23:08 11° 211° (SSW) 2,518 4.8 -17.9°
Maximum altitude 02:28:14 81° 126° (SE) 504 1.6 -16.8°
Drops below altitude 10° 02:30:50 10° 37° (NE) 1,289 4.3 -16.2°
Sets 02:32:13 0° 36° (NE) 1,935 5.3 -15.9°
